Location: Dvur Kralove nad Labem
(50.4330°N, 15.8170°E)
Time: 15:03:46
(UTC+02:00)

ISS - Pass Details

Date: 25 May 2018
Orbit: 402 x 407 km, 51.6° (Epoch: 24 May)

Event Time Altitude Azimuth Distance (km) Brightness Sun altitude
Rises 02:05:00 0° 286° (WNW) 2,320 0.0 -16.9°
Reaches altitude 10° 02:07:10 10° 278° (W) 1,458 -1.1 -16.8°
Enters shadow 02:08:18 19° 268° (W) 1,044 -2.0 -16.8°
